SL-14 DEB, 45350

Orbit data source: Space-Track

SL-14 DEB, 45350 is space debris in LEO originally from a launch on Thu, 15 Aug 1991 UTC launched from the Plesetsk Missile And Space Complex (PKMTR). Debris objects in space refer to the collection of defunct objects orbiting the Earth. Examples of debris include non-operational satellites, rocket bodies, and fragments generated from explosions, collisions, or faulty payload assembly.

Loading next visibility...
Identifier
45350, 1991-056CJ
Orbit
LEO
Country
Flag of CISCIS
Related business
Manufacturer
Unknown
Mission
Spacecraft
Bus & Motor
Unknown
Mass
Unknown
Launch date (UTC)
1991-08-15 (35 years ago)
Launch vehicle
Unknown
Launch site
Plesetsk Missile And Space Complex (PKMTR)
Object type
Payload
Rocket body
Debris
Shape & HBR
Unknown shape, 0.1 m
Radar Cross Section
Small (<0.1 m²)

Expand to show TLE details & history
Last TLE update: 6 days ago

TLE from 6 days ago
0 SL-14 DEB
1 45350U 91056CJ  26120.41371245  .00000534  00000-0  12451-2 0  9993
2 45350  82.5867 169.1089 0037755  72.4449 288.0796 13.22429096299509
Epoch: 2026-04-30T09:55Z
TLE epoch observation values (Epoch: 2026-04-30T09:55:44.755Z)
Latitude
-0.00002°
Longitude
161.81175°
Altitude
1,169.517 km
Speed
7.273 km/s
True Right ascension
11h 16m 26s
True Declination
0° 00' 00"
Sunlit
Object was in full shadow at epoch
Visualization orbit readout
Latitude
Unknown
Longitude
Unknown
Altitude
Unknown
Speed
Unknown
Apparent Right ascension
Unknown
Apparent Declination
Unknown
Sunlit
N/A
Visualization observer readout
Local Sidereal Time
04:51:12
Azimuth
Unknown
Elevation
Unknown
Doppler factor
Unknown
Orbital elements
Apogee altitude
1,201.2 km
Perigee altitude
1,144.183 km
Semi-major axis
7,550.829 km
Eccentricity
0.00378
Inclination
82.5867°
RAAN
169.1089°
Arg. of periapsis
72.4449°
True anomaly
287.66772°
Mean anomaly
288.0796°
Eccentric anomaly
287.87372°
Mean motion
3.30789 °/min
Orbital period
108.83 mins
BSTAR
0.0012451
Loading maneuver chart data...
Computing Atmospheric mass density...
Loading historical data...
Loading historical data...
Loading historical data...
Loading historical data...
Loading historical data...
Loading historical data...
Loading historical data...

Documentation

Showing up to 5 results
|